Wind_Speed
4 2 2 4 5 5 7 8 8 7 7 5 6 5 4 7 7 9 10 10 6 8 7 4 3 17 19 12 8 6 8 6 2 4 5 6 7 5 7 8 8 9 7 6 5 6 7 8 11
2 2 1 6 5 9 8 9 8 5 6 5 6 5 5 6 7 7 7 10 16 9 5 8 1 12 19 16 9 5 4 3 2 1 2 4 4 4 7 9 8 8 8 7 8 8 7 10 8
3 1 4 11 15 12 10 11 10 8 6 5 6 6 5 6 8 8 5 8 11 9 7 6 5 6 12 10 8 4 3 2 1 1 0 1 4 4 8 8 8 11 10 10 9 8 7 8 7
2 2 6 10 14 9 10 12 8 7 7 4 6 6 6 8 8 6 4 7 11 8 7 8 9 9 13 10 8 5 6 1 3 2 1 6 7 5 6 6 9 11 9 11 14 12 10 8 7
4 4 4 6 8 3 3 6 1 5 5 5 4 4 6 8 7 6 5 10 10 9 8 10 10 9 12 13 9 6 2 3 1 1 3 2 6 4 5 6 9 8 11 14 15 13 10 11 8
6 9 9 8 7 8 7 12 11 8 6 8 4 5 6 8 7 7 5 6 12 10 11 9 6 3 14 12 7 5 2 1 1 1 4 8 6 4 5 7 8 9 9 11 13 14 9 7 12
8 7 7 5 3 6 11 12 15 12 8 7 4 4 7 9 6 7 7 8 9 10 11 11 10 7 13 9 6 5 1 2 3 5 6 4 7 5 5 7 9 10 9 10 12 15 13 5 10
4 4 3 4 6 8 12 13 14 12 9 10 6 5 7 10 8 7 8 10 9 10 11 11 11 12 10 7 5 4 2 1 1 0 5 9 7 6 7 9 12 17 16 14 10 13 11 8 6
4 4 7 5 6 8 6 6 11 11 11 10 8 7 9 11 8 6 7 7 7 9 11 11 12 11 9 7 5 5 3 4 5 5 8 9 7 7 9 9 9 11 12 10 10 12 11 8 7
4 5 6 4 7 9 10 11 12 11 10 14 10 9 8 9 7 6 5 6 8 9 9 11 11 10 8 6 5 5 3 3 7 4 8 9 7 8 9 10 14 13 14 9 8 10 10 8 6
4 6 6 5 6 8 11 12 13 12 15 13 11 9 8 9 8 7 6 5 7 8 10 11 12 11 9 7 7 8 6 3 4 8 12 9 9 9 8 12 14 14 21 17 14 12 9 6 5
8 9 8 4 5 7 7 9 14 14 15 11 10 9 8 9 7 7 8 8 8 7 8 9 11 10 9 8 7 9 6 4 4 9 11 9 9 9 9 9 14 13 13 13 13 14 11 8 5
9 10 11 7 5 7 7 6 8 11 12 10 10 10 7 8 8 8 8 9 8 8 7 9 10 10 9 9 10 10 8 5 8 11 11 9 8 8 5 10 10 9 10 12 16 15 15 9 9
12 14 9 7 4 4 7 9 7 7 8 9 10 9 7 7 7 8 7 7 10 9 9 9 11 10 10 12 12 11 8 6 13 12 10 8 6 5 7 8 10 10 11 11 13 16 13 10 9
12 15 12 8 5 3 3 5 14 10 8 8 9 9 8 7 6 7 7 6 9 10 11 10 10 9 10 11 12 12 12 12 14 12 10 8 5 4 4 6 8 9 9 11 13 15 12 12 10
10 10 12 9 8 6 4 6 8 13 10 9 11 11 9 8 8 8 8 6 7 9 11 11 11 9 9 9 9 9 13 16 15 12 10 7 5 4 2 3 4 6 8 9 12 13 10 10 8
9 8 10 12 10 8 7 8 10 11 11 9 11 11 11 9 10 10 9 5 7 8 9 12 11 10 9 10 10 11 14 15 12 12 10 8 5 5 3 1 2 3 7 9 8 10 10 7 5
9 8 9 9 10 8 7 6 8 11 9 10 9 11 10 10 11 10 8 8 6 9 8 12 13 11 10 13 14 12 11 12 12 10 8 7 5 5 4 1 2 3 4 5 6 6 6 5 2
9 11 10 8 9 8 7 7 7 8 7 9 13 12 12 11 11 10 7 6 8 9 11 11 14 14 13 13 12 13 12 11 12 11 10 8 6 5 4 3 3 3 5 4 4 5 10 4 3
8 13 10 12 12 9 7 6 9 11 12 10 11 12 12 11 9 8 7 6 7 9 12 13 15 15 15 15 14 15 14 13 14 13 10 9 8 6 5 4 2 3 4 5 4 5 7 5 5
7 12 14 13 9 8 9 6 7 11 14 16 10 13 13 13 10 8 9 10 4 7 12 15 14 16 15 15 16 16 16 17 14 15 13 12 10 8 4 4 2 2 5 6 4 2 3 3 3
11 12 14 12 10 7 8 4 7 8 14 13 15 11 11 10 9 6 7 11 6 4 11 15 17 17 16 16 18 16 16 17 21 19 17 13 11 10 7 4 3 2 4 6 4 4 4 1 1
8 13 10 16 17 20 8 4 8 11 10 13 13 13 10 12 12 13 8 8 7 5 9 14 17 18 18 18 18 18 16 17 16 18 16 15 13 11 9 7 6 4 5 4 1 4 4 2 2
1 4 5 2 4 8 10 12 4 6 9 12 15 12 7 7 7 9 11 10 7 5 10 11 12 14 16 16 18 20 20 20 18 15 15 12 13 10 9 11 8 7 6 5 3 3 2 4 4
1 2 3 4 4 9 11 8 4 4 7 12 11 13 10 9 10 8 7 10 8 5 6 10 11 11 13 13 14 14 16 18 19 19 16 14 14 12 12 11 9 10 8 7 4 5 4 3 6
5 5 8 8 5 7 8 6 10 6 5 5 6 9 9 10 9 7 10 7 9 7 6 5 10 11 11 13 13 14 14 14 15 17 17 16 14 15 14 12 13 12 11 10 9 8 8 7 7
8 9 8 10 11 6 7 4 6 7 4 2 3 4 4 4 6 10 14 8 6 10 8 6 7 10 12 12 12 12 11 13 15 16 17 18 15 16 15 14 12 13 13 12 11 12 10 11 10
8 11 9 8 8 7 9 2 3 6 9 5 2 3 1 3 3 6 8 6 6 7 8 8 9 9 10 12 13 13 12 11 13 16 16 16 16 15 16 14 14 14 15 14 13 13 13 13 13
11 8 9 11 11 9 8 8 9 6 11 10 5 6 2 2 3 2 4 4 3 5 7 9 10 11 11 9 11 12 11 11 13 16 16 16 16 17 17 16 16 17 18 17 17 15 15 15 15
12 8 9 8 10 10 16 11 16 9 8 4 5 11 8 2 1 4 6 6 8 8 6 7 9 12 12 13 13 13 14 15 16 17 17 19 20 20 20 19 19 20 19 18 18 16 18 17 17
Wind_Direction
130 108 49 55 341 292 274 285 298 283 310 325 328 282 253 218 204 208 222 225 245 193 197 214 247 196 168 164 164 150 121 122 117 88 76 79 77 76 72 69 67 58 49 37 25 5 1 358 358
129 151 86 2 359 323 272 248 250 257 291 317 315 286 259 237 216 209 208 216 225 202 140 185 128 187 161 169 166 176 123 144 162 110 75 73 94 91 77 75 67 64 55 27 23 21 22 6 16
150 69 9 6 342 327 274 205 218 257 281 297 298 294 273 264 223 193 214 230 220 217 204 200 198 199 160 171 160 172 137 200 157 193 186 84 125 91 78 78 70 59 57 44 35 36 42 38 32
207 31 27 355 8 8 172 182 218 256 273 314 307 294 275 258 215 191 217 226 215 210 199 186 207 186 181 177 171 131 97 68 190 224 275 14 115 87 84 76 73 67 53 31 21 44 65 47 26
263 306 337 356 360 14 177 170 304 264 293 307 309 271 267 247 209 187 216 225 216 197 171 173 181 195 195 178 171 153 162 88 139 218 242 120 100 86 86 75 69 58 46 40 42 46 74 58 50
276 296 307 315 322 306 292 251 276 290 296 294 300 248 239 238 207 182 176 211 196 185 172 169 170 229 167 175 171 160 207 53 12 233 271 144 120 103 84 68 59 43 39 36 43 62 68 84 74
288 305 315 311 265 307 305 271 272 278 274 301 266 232 233 239 213 193 185 199 201 185 180 178 173 160 164 185 164 181 142 328 275 289 148 151 133 125 102 71 50 26 21 30 47 45 41 349 61
301 316 310 331 276 291 298 253 254 261 267 278 256 226 227 242 221 202 200 210 207 187 186 181 174 155 164 184 172 189 263 349 241 122 144 139 140 121 98 69 59 58 57 60 40 32 26 37 91
285 287 312 298 314 289 296 277 276 251 264 272 265 233 226 233 226 196 208 206 202 192 190 188 178 174 183 189 191 208 233 309 340 181 145 138 135 119 91 72 51 37 48 41 31 40 44 42 54
277 284 292 304 321 300 283 270 271 257 258 275 257 230 218 230 212 179 202 208 207 195 205 193 197 204 206 211 209 240 262 280 355 171 163 145 137 107 89 74 67 54 33 12 21 22 19 28 64
239 267 266 296 305 295 282 272 251 233 261 263 244 231 224 216 196 190 195 197 207 187 202 213 207 208 215 220 227 231 250 287 331 170 162 149 141 107 98 81 72 65 49 51 41 19 349 348 74
240 227 252 291 306 310 284 249 235 242 258 244 230 222 209 199 200 195 207 216 214 212 218 221 226 227 225 219 231 237 230 245 151 174 154 152 133 114 104 75 71 50 44 41 34 24 23 358 48
229 234 239 255 291 290 283 210 236 242 258 241 226 216 206 203 212 217 213 236 233 222 214 225 226 226 223 223 228 232 229 234 192 164 158 157 130 119 100 75 78 59 47 49 38 38 43 44 38
222 221 243 253 276 283 261 218 226 254 252 239 231 221 208 211 222 232 229 227 238 227 221 222 222 219 215 221 235 232 230 222 182 174 162 149 127 118 117 92 78 65 54 44 35 23 29 47 51
227 227 236 252 271 259 257 228 228 248 248 224 227 227 221 214 230 233 242 246 247 230 215 211 212 213 221 221 237 235 223 192 179 172 170 155 147 136 116 106 88 67 57 43 37 32 32 77 73
247 246 224 245 251 239 221 253 239 254 234 218 220 233 220 209 207 228 239 248 244 233 215 208 212 212 199 214 226 224 193 171 176 167 171 171 158 166 158 119 105 69 69 52 40 36 51 69 63
261 252 233 247 251 245 221 241 242 231 225 220 212 232 229 220 212 220 238 238 237 233 220 203 205 209 200 189 181 157 167 171 166 176 170 173 187 185 195 163 93 49 65 49 41 44 53 48 54
254 230 222 237 241 235 217 216 242 231 218 218 222 216 223 234 231 225 224 256 240 234 231 202 195 197 201 180 182 177 177 177 177 181 176 180 202 216 209 216 321 342 24 26 32 42 35 25 42
245 222 227 229 224 231 228 221 233 236 223 216 215 233 239 239 237 227 219 239 253 243 224 211 201 195 195 191 183 186 189 197 196 193 190 202 215 229 237 254 296 323 330 2 24 14 13 35 33
246 220 231 230 229 223 238 250 243 257 272 253 241 234 230 229 234 236 242 240 236 240 227 216 209 208 202 190 196 201 211 213 204 202 204 212 226 239 238 245 268 322 329 330 353 11 24 33 35
239 230 223 213 221 236 240 246 224 248 263 278 274 260 250 239 240 235 252 252 234 235 227 216 212 207 206 204 202 205 209 203 218 213 210 218 225 232 223 240 239 308 354 348 335 296 356 351 13
212 223 227 243 231 214 212 225 268 247 242 258 276 261 256 281 250 263 255 248 237 217 223 213 217 214 211 213 216 211 208 221 219 213 216 222 232 237 226 251 256 308 333 338 320 260 322 304 290
245 218 211 223 227 222 216 227 278 285 282 250 260 265 279 269 277 252 261 247 234 194 204 213 217 221 219 221 221 220 217 217 229 224 214 223 231 239 244 276 279 295 292 311 277 301 220 233 181
62 285 251 22 343 300 235 211 339 290 306 281 261 262 257 281 274 260 241 252 246 204 187 209 211 215 217 217 218 219 225 229 229 219 227 223 228 242 257 264 262 271 273 271 260 227 220 277 250
200 274 308 253 306 284 294 245 306 258 302 309 261 258 269 266 256 272 284 250 254 225 190 203 214 216 209 207 211 213 218 225 221 217 226 228 226 230 236 238 256 266 261 253 236 208 217 233 230
289 243 232 265 269 261 298 332 290 277 267 311 279 242 257 256 261 252 282 274 250 236 226 207 211 213 208 213 217 215 215 219 218 217 220 231 232 237 239 245 256 258 263 257 249 242 230 217 228
277 290 251 249 275 264 249 305 310 231 215 289 255 302 266 248 244 235 258 250 232 242 221 202 210 211 218 214 214 224 219 224 222 224 229 233 237 231 238 248 245 249 257 260 259 256 244 223 225
278 261 266 277 235 233 260 260 311 192 191 194 193 177 113 33 242 232 233 239 230 224 222 233 221 213 215 221 229 232 230 229 227 229 232 234 231 231 246 260 255 252 258 256 253 253 251 236 228
258 271 225 216 216 208 242 251 236 139 190 221 210 196 235 312 8 359 285 277 272 260 247 240 234 232 233 233 228 230 238 237 236 233 232 230 234 240 248 255 257 259 260 261 257 256 252 251 243
243 249 250 226 280 244 208 226 261 232 153 151 208 244 248 195 292 356 345 327 297 271 267 263 258 256 253 252 253 252 249 248 248 249 249 248 243 246 250 252 250 254 260 261 257 260 257 254 254
Height
5903 5904 5904 5904 5907 5904 5903 5903 5901 5901 5901 5900 5899 5899 5900 5899 5899 5901 5896 5897 5899 5902 5902 5903 5903 5904 5906 5908 5909 5911 5912 5911 5911 5912 5911 5911 5911 5912 5910 5910 5910 5910 5909 5908 5907 5905 5903 5902 5899
5903 5904 5904 5904 5905 5903 5902 5901 5901 5900 5899 5899 5898 5898 5899 5899 5898 5898 5897 5898 5899 5901 5901 5904 5904 5906 5906 5908 5909 5911 5912 5912 5912 5913 5912 5912 5912 5911 5911 5911 5911 5911 5910 5908 5907 5904 5903 5902 5899
5903 5904 5905 5903 5902 5900 5899 5899 5900 5899 5899 5897 5897 5897 5898 5898 5898 5898 5897 5897 5899 5901 5903 5905 5905 5906 5906 5909 5909 5912 5913 5913 5913 5913 5913 5912 5912 5912 5911 5912 5913 5911 5910 5909 5906 5903 5902 5902 5900
5904 5905 5905 5904 5901 5897 5897 5899 5899 5898 5898 5897 5896 5897 5898 5898 5898 5897 5897 5898 5899 5900 5904 5904 5905 5906 5908 5910 5911 5913 5913 5913 5913 5913 5913 5911 5912 5912 5912 5912 5912 5911 5910 5909 5906 5904 5903 5902 5900
5904 5904 5904 5903 5902 5901 5901 5899 5898 5897 5897 5895 5896 5896 5897 5898 5897 5896 5896 5897 5898 5900 5902 5904 5904 5906 5907 5910 5912 5914 5913 5913 5913 5913 5913 5913 5913 5913 5913 5913 5912 5911 5910 5909 5906 5905 5904 5904 5902
5904 5903 5903 5902 5901 5900 5899 5899 5897 5896 5895 5895 5895 5896 5896 5897 5896 5895 5896 5896 5898 5900 5902 5903 5904 5905 5908 5910 5912 5914 5913 5913 5913 5913 5913 5913 5914 5913 5914 5913 5912 5911 5910 5908 5907 5906 5905 5904 5902
5903 5903 5902 5901 5900 5899 5898 5897 5896 5895 5895 5894 5894 5895 5896 5896 5896 5895 5895 5897 5899 5900 5902 5903 5904 5905 5908 5911 5913 5913 5913 5912 5911 5911 5911 5912 5914 5914 5914 5914 5913 5911 5909 5908 5907 5906 5905 5904 5901
5902 5902 5902 5900 5900 5899 5897 5895 5896 5895 5895 5894 5894 5894 5895 5896 5895 5895 5895 5897 5898 5900 5902 5903 5905 5905 5908 5911 5912 5912 5911 5912 5911 5911 5911 5913 5914 5915 5915 5914 5913 5911 5909 5908 5908 5906 5905 5904 5904
5902 5902 5901 5900 5899 5897 5896 5896 5895 5895 5895 5894 5895 5894 5895 5895 5895 5895 5896 5897 5899 5900 5902 5903 5904 5906 5908 5910 5911 5911 5911 5911 5910 5910 5912 5914 5915 5916 5916 5914 5912 5911 5910 5909 5908 5907 5906 5905 5904
5900 5900 5899 5899 5898 5895 5895 5895 5894 5894 5894 5894 5894 5895 5895 5895 5896 5895 5897 5897 5899 5900 5902 5903 5905 5906 5907 5908 5910 5910 5910 5910 5910 5911 5913 5915 5916 5916 5916 5914 5912 5912 5910 5909 5908 5907 5906 5904 5904
5899 5898 5898 5897 5896 5895 5893 5892 5892 5893 5892 5892 5894 5895 5895 5895 5896 5897 5896 5898 5900 5901 5902 5904 5904 5905 5907 5908 5908 5909 5910 5910 5911 5912 5914 5915 5916 5916 5915 5914 5912 5911 5911 5910 5909 5907 5906 5904 5904
5897 5896 5896 5896 5895 5893 5892 5891 5890 5891 5891 5891 5892 5894 5894 5895 5896 5898 5898 5899 5900 5901 5902 5903 5904 5905 5906 5907 5908 5909 5911 5911 5912 5914 5915 5916 5917 5916 5915 5913 5911 5912 5912 5912 5910 5907 5905 5905 5904
5895 5895 5893 5893 5893 5891 5890 5889 5890 5889 5889 5890 5891 5892 5893 5895 5896 5897 5898 5899 5899 5901 5901 5902 5903 5904 5905 5906 5907 5908 5910 5911 5912 5914 5915 5915 5916 5916 5916 5914 5913 5914 5914 5913 5911 5908 5906 5906 5905
5893 5892 5892 5891 5891 5890 5889 5889 5889 5889 5889 5889 5890 5891 5892 5894 5896 5897 5897 5898 5898 5900 5900 5901 5902 5904 5905 5906 5906 5907 5908 5910 5912 5914 5915 5914 5915 5916 5915 5915 5914 5915 5914 5913 5912 5910 5908 5907 5906
5890 5890 5891 5891 5890 5889 5888 5888 5888 5888 5888 5888 5889 5890 5892 5893 5895 5896 5896 5897 5897 5898 5900 5900 5902 5903 5903 5904 5905 5906 5908 5909 5912 5914 5914 5914 5915 5916 5916 5915 5915 5915 5915 5913 5913 5912 5910 5908 5908
5887 5889 5889 5889 5889 5888 5888 5888 5886 5887 5888 5887 5888 5889 5890 5892 5895 5895 5895 5896 5897 5898 5899 5899 5901 5902 5902 5904 5904 5905 5907 5909 5911 5913 5914 5914 5915 5916 5916 5916 5916 5915 5914 5914 5914 5914 5912 5910 5910
5886 5887 5887 5887 5887 5887 5887 5886 5885 5885 5886 5886 5886 5888 5889 5892 5894 5895 5894 5894 5896 5897 5898 5898 5900 5901 5902 5903 5904 5905 5907 5910 5911 5913 5913 5914 5915 5916 5916 5915 5916 5916 5914 5915 5914 5915 5914 5913 5911
5884 5885 5885 5885 5886 5885 5885 5884 5884 5884 5884 5885 5886 5886 5888 5890 5892 5894 5894 5893 5894 5895 5897 5897 5899 5901 5903 5904 5905 5907 5909 5910 5911 5913 5914 5914 5914 5916 5916 5915 5916 5916 5914 5914 5915 5915 5915 5914 5913
5882 5883 5884 5885 5885 5885 5885 5884 5883 5883 5884 5884 5884 5885 5885 5887 5889 5891 5892 5893 5893 5894 5895 5897 5898 5899 5902 5904 5906 5907 5907 5908 5910 5911 5913 5914 5914 5915 5916 5916 5916 5915 5914 5914 5913 5914 5913 5913 5912
5881 5881 5884 5883 5884 5885 5885 5885 5885 5883 5883 5884 5884 5883 5884 5885 5886 5888 5890 5892 5892 5893 5894 5896 5897 5898 5900 5903 5905 5907 5908 5908 5908 5910 5912 5913 5913 5914 5915 5916 5915 5915 5915 5914 5913 5913 5913 5913 5914
5881 5881 5882 5883 5884 5886 5886 5886 5887 5886 5884 5882 5883 5883 5883 5884 5885 5886 5888 5890 5891 5891 5892 5894 5896 5897 5899 5901 5903 5904 5906 5907 5908 5909 5911 5912 5912 5913 5914 5915 5915 5916 5915 5914 5914 5913 5913 5913 5914
5880 5880 5881 5883 5885 5886 5886 5888 5885 5885 5884 5883 5882 5883 5883 5884 5884 5885 5886 5888 5889 5890 5890 5892 5894 5896 5897 5898 5900 5902 5904 5905 5907 5907 5908 5910 5912 5913 5913 5914 5915 5916 5915 5914 5914 5913 5913 5914 5915
5879 5877 5880 5880 5881 5884 5884 5886 5885 5883 5883 5882 5882 5882 5883 5883 5884 5885 5885 5886 5887 5888 5889 5890 5892 5893 5894 5896 5898 5901 5902 5904 5906 5906 5908 5909 5910 5912 5913 5914 5915 5915 5914 5914 5914 5914 5914 5914 5915
5877 5879 5880 5881 5881 5882 5881 5882 5886 5883 5882 5880 5881 5882 5882 5883 5884 5884 5884 5884 5886 5887 5889 5890 5890 5891 5892 5894 5896 5898 5900 5901 5903 5905 5907 5908 5910 5912 5913 5914 5914 5914 5914 5914 5914 5914 5914 5914 5914
5876 5879 5885 5888 5888 5885 5881 5881 5881 5882 5882 5879 5878 5880 5881 5881 5882 5883 5884 5883 5885 5886 5887 5888 5889 5889 5891 5893 5894 5896 5897 5898 5900 5903 5905 5906 5907 5909 5911 5913 5913 5914 5914 5914 5913 5914 5915 5915 5915
5876 5879 5884 5885 5887 5887 5882 5883 5881 5882 5881 5880 5878 5877 5877 5878 5879 5880 5882 5883 5883 5885 5886 5887 5888 5889 5890 5892 5893 5894 5895 5896 5898 5899 5902 5904 5906 5907 5909 5911 5911 5912 5913 5913 5913 5914 5915 5915 5915
5876 5876 5881 5881 5882 5883 5884 5883 5881 5879 5880 5880 5878 5877 5877 5876 5877 5878 5880 5880 5882 5883 5884 5885 5886 5888 5889 5891 5892 5893 5893 5895 5896 5898 5899 5901 5903 5905 5907 5908 5910 5911 5911 5912 5912 5912 5914 5914 5915
5873 5875 5876 5878 5881 5883 5882 5883 5879 5878 5879 5879 5878 5878 5878 5877 5878 5878 5878 5879 5880 5881 5882 5883 5884 5886 5887 5888 5890 5891 5892 5892 5894 5895 5896 5898 5901 5904 5905 5906 5907 5908 5909 5910 5910 5911 5912 5912 5913
5872 5870 5871 5877 5878 5882 5884 5884 5877 5877 5877 5878 5878 5877 5877 5877 5877 5877 5877 5878 5878 5880 5881 5881 5883 5883 5884 5886 5888 5888 5890 5891 5892 5892 5894 5895 5898 5899 5901 5903 5905 5905 5906 5907 5908 5909 5910 5910 5911
5870 5872 5872 5873 5876 5877 5876 5880 5876 5876 5875 5876 5876 5877 5876 5876 5877 5877 5877 5877 5878 5879 5879 5880 5881 5882 5883 5884 5885 5886 5886 5887 5889 5890 5891 5893 5894 5896 5897 5899 5900 5902 5903 5904 5904 5906 5906 5907 5907